When you browse on this site, cookies collect data to enhance your experience and personalize the content and advertising you see.
Visit our Privacy Policy to learn more. By continuing to use the site, you agree to this use of cookies and data.
  • In Germany
  • List of Countries
  • For 7 days
  • Water Temperature
  • Weather Map
  • Weather Widgets
  • user-avatar
    Login

    Hourly Weather Brisbane

    Today, 23 August, Friday

    Time Temperature Precipitation Wind Pressure Humidity
    00:00 +17°C° 0 mm 4 mps 762 mmHg 67%
    01:00 +15°C° 0 mm 4 mps 762 mmHg 70%
    02:00 +14°C° 0 mm 4 mps 763 mmHg 73%
    03:00 +13°C° 0 mm 4 mps 763 mmHg 76%
    04:00 +12°C° 0 mm 3 mps 763 mmHg 82%
    05:00 +12°C° 0 mm 3 mps 764 mmHg 79%
    06:00 +12°C° 0 mm 3 mps 765 mmHg 75%
    07:00 +12°C° 0 mm 3 mps 765 mmHg 72%
    08:00 +14°C° 0 mm 3 mps 765 mmHg 62%
    09:00 +18°C° 0 mm 3 mps 765 mmHg 53%
    10:00 +21°C° 0 mm 2 mps 766 mmHg 43%
    11:00 +21°C° 0 mm 3 mps 765 mmHg 41%
    12:00 +22°C° 0 mm 3 mps 765 mmHg 39%
    13:00 +24°C° 0 mm 3 mps 764 mmHg 38%
    14:00 +22°C° 0 mm 4 mps 764 mmHg 40%
    15:00 +22°C° 0 mm 4 mps 764 mmHg 42%
    16:00 +22°C° 0 mm 3 mps 764 mmHg 44%
    17:00 +20°C° 0 mm 4 mps 765 mmHg 52%
    18:00 +19°C° 0 mm 4 mps 765 mmHg 60%
    19:00 +17°C° 0 mm 4 mps 766 mmHg 68%
    20:00 +16°C° 0 mm 3 mps 766 mmHg 71%
    21:00 +16°C° 0 mm 3 mps 767 mmHg 74%
    22:00 +15°C° 0 mm 2 mps 767 mmHg 76%
    23:00 +15°C° 0 mm 2 mps 767 mmHg 78%

    Tomorrow, 24 August, Saturday

    Time Temperature Precipitation Wind Pressure Humidity
    00:00 +14°C° 0 mm 2 mps 766 mmHg 80%
    01:00 +14°C° 0 mm 2 mps 766 mmHg 81%
    02:00 +13°C° 0 mm 2 mps 766 mmHg 81%
    03:00 +13°C° 0 mm 2 mps 766 mmHg 82%
    04:00 +12°C° 0 mm 1 mps 766 mmHg 82%
    05:00 +12°C° 0 mm 1 mps 767 mmHg 81%
    06:00 +12°C° 0 mm 1 mps 767 mmHg 80%
    07:00 +13°C° 0 mm 1 mps 767 mmHg 79%
    08:00 +15°C° 0 mm 1 mps 767 mmHg 69%
    09:00 +19°C° 0 mm 1 mps 767 mmHg 59%
    10:00 +20°C° 0 mm 0 mps 767 mmHg 49%
    11:00 +23°C° 0 mm 1 mps 766 mmHg 46%
    12:00 +24°C° 0 mm 1 mps 765 mmHg 42%
    13:00 +24°C° 0 mm 2 mps 765 mmHg 39%
    14:00 +24°C° 0 mm 2 mps 764 mmHg 41%
    15:00 +22°C° 0 mm 3 mps 764 mmHg 43%
    16:00 +21°C° 0 mm 3 mps 763 mmHg 46%
    17:00 +20°C° 0 mm 3 mps 764 mmHg 53%
    18:00 +18°C° 0 mm 3 mps 764 mmHg 60%
    19:00 +16°C° 0 mm 3 mps 765 mmHg 66%
    20:00 +16°C° 0 mm 2 mps 765 mmHg 69%
    21:00 +15°C° 0 mm 2 mps 765 mmHg 72%
    22:00 +14°C° 0 mm 2 mps 765 mmHg 74%
    23:00 +14°C° 0 mm 2 mps 764 mmHg 76%

    Day after tomorrow, 25 August, Sunday

    Time Temperature Precipitation Wind Pressure Humidity
    00:00 +13°C° 0 mm 1 mps 764 mmHg 77%
    01:00 +13°C° 0 mm 1 mps 764 mmHg 78%
    02:00 +13°C° 0 mm 1 mps 764 mmHg 80%
    03:00 +12°C° 0 mm 1 mps 764 mmHg 81%
    04:00 +12°C° 0 mm 1 mps 764 mmHg 82%
    05:00 +12°C° 0 mm 1 mps 764 mmHg 81%
    06:00 +12°C° 0 mm 1 mps 764 mmHg 80%
    07:00 +13°C° 0 mm 1 mps 764 mmHg 80%
    08:00 +15°C° 0 mm 1 mps 764 mmHg 69%
    09:00 +19°C° 0 mm 1 mps 764 mmHg 58%
    10:00 +22°C° 0 mm 1 mps 764 mmHg 47%
    11:00 +24°C° 0 mm 1 mps 763 mmHg 43%
    12:00 +25°C° 0 mm 1 mps 762 mmHg 38%
    13:00 +27°C° 0 mm 2 mps 761 mmHg 33%
    14:00 +26°C° 0 mm 2 mps 761 mmHg 36%
    15:00 +25°C° 0 mm 2 mps 761 mmHg 39%
    16:00 +25°C° 0 mm 2 mps 760 mmHg 42%
    17:00 +22°C° 0 mm 3 mps 761 mmHg 48%
    18:00 +20°C° 0 mm 3 mps 761 mmHg 54%
    19:00 +19°C° 0 mm 3 mps 761 mmHg 60%
    20:00 +18°C° 0 mm 3 mps 762 mmHg 60%
    21:00 +18°C° 0 mm 3 mps 762 mmHg 61%
    22:00 +18°C° 0 mm 2 mps 762 mmHg 61%
    23:00 +17°C° 0 mm 2 mps 762 mmHg 62%

    26 August, Monday

    Time Temperature Precipitation Wind Pressure Humidity
    00:00 +17°C° 0 mm 2 mps 762 mmHg 63%
    01:00 +17°C° 0 mm 2 mps 762 mmHg 64%
    02:00 +16°C° 0 mm 2 mps 762 mmHg 65%
    03:00 +16°C° 0 mm 1 mps 761 mmHg 67%
    04:00 +15°C° 0 mm 1 mps 761 mmHg 68%
    05:00 +15°C° 0 mm 1 mps 762 mmHg 69%
    06:00 +15°C° 0 mm 1 mps 762 mmHg 69%
    07:00 +15°C° 0 mm 1 mps 763 mmHg 70%
    08:00 +19°C° 0 mm 1 mps 763 mmHg 61%
    09:00 +21°C° 0 mm 1 mps 763 mmHg 53%
    10:00 +24°C° 0 mm 1 mps 762 mmHg 45%
    11:00 +25°C° 0 mm 1 mps 762 mmHg 38%
    12:00 +27°C° 0 mm 1 mps 761 mmHg 32%
    13:00 +28°C° 0 mm 1 mps 761 mmHg 25%
    14:00 +27°C° 0 mm 2 mps 761 mmHg 30%
    15:00 +26°C° 0 mm 2 mps 760 mmHg 34%
    16:00 +25°C° 0 mm 3 mps 760 mmHg 39%
    17:00 +23°C° 0 mm 2 mps 761 mmHg 47%
    18:00 +21°C° 0 mm 2 mps 762 mmHg 56%
    19:00 +19°C° 0 mm 2 mps 762 mmHg 65%
    20:00 +19°C° 0 mm 1 mps 763 mmHg 69%
    21:00 +19°C° 0 mm 1 mps 763 mmHg 72%
    22:00 +18°C° 0 mm 1 mps 763 mmHg 76%
    23:00 +18°C° 0 mm 1 mps 763 mmHg 77%

    27 August, Tuesday

    Time Temperature Precipitation Wind Pressure Humidity
    00:00 +16°C° 0 mm 1 mps 763 mmHg 78%
    01:00 +16°C° 0 mm 1 mps 763 mmHg 80%
    02:00 +16°C° 0 mm 1 mps 763 mmHg 81%
    03:00 +15°C° 0 mm 1 mps 763 mmHg 82%
    04:00 +15°C° 0 mm 1 mps 763 mmHg 83%
    05:00 +15°C° 0 mm 1 mps 763 mmHg 81%
    06:00 +15°C° 0 mm 1 mps 764 mmHg 80%
    07:00 +15°C° 0 mm 1 mps 764 mmHg 79%
    08:00 +19°C° 0 mm 1 mps 764 mmHg 67%
    09:00 +22°C° 0 mm 1 mps 764 mmHg 56%
    10:00 +24°C° 0 mm 1 mps 764 mmHg 44%
    11:00 +25°C° 0 mm 2 mps 764 mmHg 41%
    12:00 +26°C° 0 mm 2 mps 763 mmHg 37%
    13:00 +27°C° 0 mm 2 mps 763 mmHg 33%
    14:00 +26°C° 0 mm 3 mps 762 mmHg 38%
    15:00 +25°C° 0 mm 3 mps 762 mmHg 43%
    16:00 +24°C° 0 mm 3 mps 762 mmHg 47%
    17:00 +21°C° 0.5 mm 3 mps 763 mmHg 55%
    18:00 +20°C° 0.5 mm 2 mps 763 mmHg 63%
    19:00 +19°C° 0.5 mm 1 mps 764 mmHg 72%
    20:00 +19°C° 0 mm 1 mps 764 mmHg 73%
    21:00 +18°C° 0 mm 1 mps 764 mmHg 73%
    22:00 +18°C° 0 mm 1 mps 764 mmHg 74%
    23:00 +16°C° 0.1 mm 1 mps 764 mmHg 77%

    28 August, Wednesday

    Time Temperature Precipitation Wind Pressure Humidity
    00:00 +16°C° 0.1 mm 1 mps 764 mmHg 79%
    01:00 +15°C° 0.1 mm 1 mps 764 mmHg 81%
    02:00 +15°C° 0 mm 1 mps 764 mmHg 82%
    03:00 +15°C° 0 mm 1 mps 764 mmHg 83%
    04:00 +15°C° 0 mm 1 mps 763 mmHg 83%
    05:00 +15°C° 0 mm 1 mps 764 mmHg 82%
    06:00 +15°C° 0 mm 1 mps 764 mmHg 81%
    07:00 +15°C° 0 mm 1 mps 765 mmHg 80%
    08:00 +19°C° 0 mm 1 mps 765 mmHg 69%
    09:00 +22°C° 0 mm 1 mps 764 mmHg 58%
    10:00 +24°C° 0 mm 1 mps 764 mmHg 48%
    11:00 +25°C° 0 mm 2 mps 764 mmHg 45%
    12:00 +25°C° 0 mm 2 mps 763 mmHg 42%
    13:00 +26°C° 0 mm 3 mps 762 mmHg 39%
    14:00 +25°C° 0 mm 3 mps 762 mmHg 42%
    15:00 +24°C° 0 mm 3 mps 761 mmHg 46%
    16:00 +22°C° 0 mm 3 mps 761 mmHg 49%
    17:00 +21°C° 0 mm 3 mps 762 mmHg 58%
    18:00 +19°C° 0 mm 3 mps 762 mmHg 67%
    19:00 +18°C° 0 mm 2 mps 763 mmHg 76%
    20:00 +17°C° 0.1 mm 2 mps 763 mmHg 78%
    21:00 +16°C° 0.1 mm 1 mps 763 mmHg 80%
    22:00 +15°C° 0.1 mm 0 mps 763 mmHg 83%
    23:00 +16°C° 0.2 mm 1 mps 763 mmHg 84%
    Show more